This is the latest recevied weather packets stored in our database for station/object IW2LSY-11. If no packets are shown the sender has not sent any weather packets the latest 10 day(s).
| Time | Temp. | Humidity | Pressure | Rain* | Wind** | Luminosity | Snow |
|---|---|---|---|---|---|---|---|
| 1777553407 | 18.89° C | 42% | 1022.5 hPa | - | - | 390 W/m² | - |
| 1777552808 | 18.89° C | 42% | 1022.7 hPa | - | - | 387 W/m² | - |
| 1777552208 | 18.89° C | 42% | 1022.7 hPa | - | - | 383 W/m² | - |
| 1777551608 | 18.89° C | 43% | 1022.8 hPa | - | - | 378 W/m² | - |
| 1777551008 | 19.44° C | 42% | 1022.8 hPa | - | - | 372 W/m² | - |
| 1777550408 | 18.89° C | 43% | 1022.9 hPa | - | - | 366 W/m² | - |
| 1777549808 | 18.89° C | 44% | 1022.8 hPa | - | - | 360 W/m² | - |
| 1777549208 | 18.89° C | 45% | 1023 hPa | - | - | 351 W/m² | - |
| 1777548609 | 18.89° C | 44% | 1023 hPa | - | - | 344 W/m² | - |
| 1777548009 | 18.33° C | 45% | 1023 hPa | - | - | 336 W/m² | - |
| 1777547409 | 18.89° C | 46% | 1023 hPa | - | - | 329 W/m² | - |
| 1777546809 | 18.89° C | 45% | 1022.9 hPa | - | - | 325 W/m² | - |
| 1777546210 | 18.89° C | 45% | 1023 hPa | - | - | 321 W/m² | - |
| 1777545610 | 18.33° C | 45% | 1023.1 hPa | - | - | 313 W/m² | - |
| 1777545010 | 18.89° C | 45% | 1023.1 hPa | - | - | 304 W/m² | - |
| 1777544411 | 18.89° C | 46% | 1023.1 hPa | - | - | 293 W/m² | - |
| 1777543812 | 18.89° C | 45% | 1023 hPa | - | - | 283 W/m² | - |
| 1777543213 | 18.89° C | 49% | 1023.2 hPa | - | - | 276 W/m² | - |
| 1777542613 | 18.89° C | 48% | 1023.2 hPa | - | - | 270 W/m² | - |
| 1777542013 | 18.33° C | 51% | 1023.2 hPa | - | - | 268 W/m² | - |
| 1777541413 | 17.78° C | 51% | 1023.4 hPa | - | - | 262 W/m² | - |
| 1777540814 | 17.78° C | 52% | 1023.4 hPa | - | - | 260 W/m² | - |
| 1777540214 | 17.78° C | 55% | 1023.4 hPa | - | - | 263 W/m² | - |
| 1777539614 | 17.22° C | 56% | 1023.4 hPa | - | - | 266 W/m² | - |
| 1777539004 | 16.67° C | 60% | 1023.5 hPa | - | - | 270 W/m² | - |
* Rain since midnight (hover to see other rain measurements)
** Current wind speed in m/s (hover to see current wind gust speed)